Quakertown, PA

3:16 PM EDT on April 25, 2017 (GMT -0400)
Quakertown

Weather History for KUKT - December, 2012

Change the Weather History Date:

Thursday, December 13, 2012

  Actual Average (KABE) Record (KABE)
Temperature  
Mean Temperature 34 °F -  
Max Temperature 44 °F 42 °F 68 °F (2015)
Min Temperature 23 °F 26 °F 5 °F (1960)
Degree Days  
Heating Degree Days 31    
Moisture  
Dew Point 24 °F    
Average Humidity 76    
Maximum Humidity 100    
Minimum Humidity 39    
Precipitation  
Precipitation 0.00 in - - ()
Sea Level Pressure  
Sea Level Pressure 30.40 in    
Wind  
Wind Speed 0 mph (NE)    
Max Wind Speed 6 mph    
Max Gust Speed -    
Visibility 9 miles    
Events      
Averages and records for this station are not official NWS values.
T = Trace of Precipitation, MM = Missing Value Source: NWS Daily Summary

Daily Weather History Graph

Daily Weather History Graph

Search for Another Location

Airport or City:

Trip Planner

Search our weather history database for the weather conditions in past years. The results will help you decide how hot, cold, wet, or windy it might be!

Date:

Astronomy

Dec. 13, 2012 Rise Set
Actual Time 7:16 AM EST 4:35 PM EST
Civil Twilight 6:45 AM EST 5:06 PM EST
Nautical Twilight 6:11 AM EST 5:40 PM EST
Astronomical Twilight 5:38 AM EST 6:13 PM EST
Moon 7:22 AM EST (12/13) 5:15 PM EST (12/13)
Length of Visible Light 10h 20m
Length of Day
9h 19m
New Moon, 0% of the Moon is Illuminated
Dec 13
New Moon
Dec 20
First Quarter
Dec 28
Full
Jan 4
Last Quarter
Jan 11
New

Hourly Weather History & Observations

Time (EST) Temp. Windchill Dew Point Humidity Pressure Visibility Wind Dir Wind Speed Gust Speed Precip Events Conditions
12:15 AM 28.4 °F - 26.6 °F 93% 30.42 in 9.0 mi Calm Calm - N/A   Clear
12:35 AM 28.4 °F - 26.6 °F 93% 30.41 in 9.0 mi Calm Calm - N/A   Clear
12:55 AM 28.4 °F - 26.6 °F 93% 30.40 in 10.0 mi Calm Calm - N/A   Clear
1:15 AM 28.4 °F - 26.6 °F 93% 30.40 in 9.0 mi Calm Calm - N/A   Clear
1:35 AM 28.4 °F - 26.6 °F 93% 30.40 in 9.0 mi Calm Calm - N/A   Clear
1:55 AM 28.4 °F - 26.6 °F 93% 30.41 in 8.0 mi Calm Calm - N/A   Clear
2:15 AM 28.4 °F - 26.6 °F 93% 30.41 in 8.0 mi Calm Calm - N/A   Clear
2:35 AM 26.6 °F - 26.6 °F 100% 30.42 in 7.0 mi Calm Calm - N/A   Clear
2:55 AM 28.4 °F - 24.8 °F 86% 30.42 in 8.0 mi Calm Calm - N/A   Clear
3:15 AM 28.4 °F - 24.8 °F 86% 30.41 in 10.0 mi Calm Calm - N/A   Clear
3:35 AM 26.6 °F - 24.8 °F 93% 30.41 in 9.0 mi Calm Calm - N/A   Clear
3:55 AM 26.6 °F - 24.8 °F 93% 30.41 in 9.0 mi Calm Calm - N/A   Clear
4:15 AM 28.4 °F - 24.8 °F 86% 30.41 in 10.0 mi Calm Calm - N/A   Clear
4:35 AM 28.4 °F - 24.8 °F 86% 30.41 in 10.0 mi Calm Calm - N/A   Clear
4:55 AM 30.2 °F - 24.8 °F 80% 30.41 in 10.0 mi Calm Calm - N/A   Clear
5:15 AM 28.4 °F - 24.8 °F 86% 30.40 in 10.0 mi Calm Calm - N/A   Clear
5:35 AM 28.4 °F - 24.8 °F 86% 30.42 in 10.0 mi Calm Calm - N/A   Clear
5:55 AM 26.6 °F - 24.8 °F 93% 30.43 in 10.0 mi Calm Calm - N/A   Clear
6:15 AM 26.6 °F - 24.8 °F 93% 30.43 in 9.0 mi Calm Calm - N/A   Clear
6:35 AM 28.4 °F - 24.8 °F 86% 30.43 in 10.0 mi Calm Calm - N/A   Clear
6:55 AM 24.8 °F - 23.0 °F 93% 30.45 in 10.0 mi Calm Calm - N/A   Clear
7:15 AM 24.8 °F - 23.0 °F 93% 30.45 in 8.0 mi Calm Calm - N/A   Clear
7:35 AM 24.8 °F - 23.0 °F 93% 30.45 in 7.0 mi Calm Calm - N/A   Clear
7:55 AM 24.8 °F - 23.0 °F 93% 30.44 in 6.0 mi Calm Calm - N/A   Clear
8:15 AM 24.8 °F - 23.0 °F 93% 30.45 in 6.0 mi Calm Calm - N/A   Clear
8:35 AM 28.4 °F - 24.8 °F 86% 30.44 in 7.0 mi Calm Calm - N/A   Clear
8:55 AM 32.0 °F - 28.4 °F 87% 30.45 in 7.0 mi Calm Calm - N/A   Clear
9:15 AM 35.6 °F - 26.6 °F 70% 30.45 in 10.0 mi Calm Calm - N/A   Clear
9:35 AM 37.4 °F - 26.6 °F 65% 30.44 in 10.0 mi Calm Calm - N/A   Clear
9:55 AM 37.4 °F - 26.6 °F 65% 30.45 in 10.0 mi Calm Calm - N/A   Clear
10:15 AM 39.2 °F - 26.6 °F 61% 30.45 in 10.0 mi Calm Calm - N/A   Clear
10:35 AM 41.0 °F - 26.6 °F 57% 30.45 in 10.0 mi Calm Calm - N/A   Clear
10:55 AM 41.0 °F - 24.8 °F 53% 30.45 in 10.0 mi Calm Calm - N/A   Clear
11:15 AM 41.0 °F 37.1 °F 23.0 °F 49% 30.45 in 10.0 mi NNE 5.8 mph - N/A   Clear
11:35 AM 42.8 °F 39.3 °F 24.8 °F 49% 30.44 in 10.0 mi ENE 5.8 mph - N/A   Clear
11:55 AM 42.8 °F - 24.8 °F 49% 30.42 in 10.0 mi Calm Calm - N/A   Clear
12:15 PM 42.8 °F - 23.0 °F 46% 30.42 in 10.0 mi Calm Calm - N/A   Unknown
12:35 PM 42.8 °F 41.1 °F 23.0 °F 46% 30.41 in 10.0 mi NE 3.5 mph - N/A   Clear
12:55 PM 42.8 °F 39.3 °F 23.0 °F 46% 30.41 in 10.0 mi ENE 5.8 mph - N/A   Clear
1:15 PM 42.8 °F - 23.0 °F 46% 30.40 in 10.0 mi Calm Calm - N/A   Clear
1:35 PM 42.8 °F 41.1 °F 23.0 °F 46% 30.40 in 10.0 mi East 3.5 mph - N/A   Clear
1:55 PM 44.6 °F 41.4 °F 23.0 °F 43% 30.40 in 10.0 mi NW 5.8 mph - N/A   Clear
2:15 PM 44.6 °F - 23.0 °F 43% 30.39 in 10.0 mi Calm Calm - N/A   Clear
2:35 PM 44.6 °F - 23.0 °F 43% 30.38 in 10.0 mi Calm Calm - N/A   Clear
2:55 PM 42.8 °F - 23.0 °F 46% 30.37 in 10.0 mi Calm Calm - N/A   Clear
3:10 PM - - - N/A% - - North - - N/A   Unknown
3:30 PM 44.6 °F - 21.2 °F 39% 30.38 in 10.0 mi Calm Calm - N/A   Unknown
3:50 PM 41.0 °F - 23.0 °F 49% 30.38 in 10.0 mi Calm Calm - N/A   Clear
4:10 PM 41.0 °F - 21.2 °F 45% 30.37 in 10.0 mi Calm Calm - N/A   Clear
4:30 PM 39.2 °F - 23.0 °F 52% 30.37 in 10.0 mi Calm Calm - N/A   Clear
4:50 PM 37.4 °F - 23.0 °F 56% 30.37 in 10.0 mi Calm Calm - N/A   Clear
5:30 PM 33.8 °F - 24.8 °F 70% 30.38 in 10.0 mi Calm Calm - N/A   Clear
7:50 PM 28.4 °F - 24.8 °F 86% 30.37 in 10.0 mi Calm Calm - N/A   Clear
8:10 PM 28.4 °F - 24.8 °F 86% 30.35 in 10.0 mi Calm Calm - N/A   Clear
8:30 PM 26.6 °F - 24.8 °F 93% 30.35 in 10.0 mi Calm Calm - N/A   Clear
8:50 PM 26.6 °F - 23.0 °F 86% 30.35 in 10.0 mi Calm Calm - N/A   Clear
9:10 PM 26.6 °F - 23.0 °F 86% 30.35 in 10.0 mi Calm Calm - N/A   Clear
9:30 PM 24.8 °F - 23.0 °F 93% 30.35 in 10.0 mi Calm Calm - N/A   Clear
9:50 PM 26.6 °F - 23.0 °F 86% 30.34 in 10.0 mi Calm Calm - N/A   Clear
10:10 PM 24.8 °F - 23.0 °F 93% 30.34 in 10.0 mi Calm Calm - N/A   Clear
10:30 PM 24.8 °F - 23.0 °F 93% 30.34 in 6.0 mi Calm Calm - N/A   Clear
10:50 PM 24.8 °F - 23.0 °F 93% 30.34 in 10.0 mi Calm Calm - N/A   Clear
11:10 PM 24.8 °F - 21.2 °F 86% 30.33 in 8.0 mi Calm Calm - N/A   Clear
11:30 PM 24.8 °F - 23.0 °F 93% 30.33 in 7.0 mi Calm Calm - N/A   Clear
11:50 PM 23.0 °F - 23.0 °F 100% 30.33 in 5.0 mi Calm Calm - N/A   Clear